Location: downtown San Diego
(32.7310°N, 117.1990°W)
Time: 17:06:19
(UTC-07:00)

Cosmos 1420 Rocket - Pass Details

Date: 14 June 2018
Orbit: 754 x 782 km, 74.0° (Epoch: 19 October)

Event Time Altitude Azimuth Distance (km) Brightness Sun altitude
Rises 22:35:24 0° 343° (NNW) 3,211 8.4 -25.5°
Reaches altitude 10° 22:37:46 10° 344° (NNW) 2,282 7.4 -25.8°
Enters shadow 22:42:57 88° 68° (ENE) 759 3.8 -26.4°
